Other Public Products
Issued by NWS Charleston, SC

Current Version | Previous Version | Graphics & Text | Print | Product List | Glossary On
Versions: 1 2 3 4 5 6 7 8 9 10 11 12 13 14 15 16 17 18 19 20 21 22 23 24 25 26 27 28 29 30 31 32 33 34 35 36 37 38 39 40 41 42 43 44 45 46 47 48 49 50
000 FPUS82 KCHS 192228 OPUCHS TEST...KCHS/KSAV Gateway Observations...TEST National Weather Service Charleston SC 500 PM EST MON FEB 19 2018 NOTE: "fair" indicates few or no clouds below 12,000 feet with no significant weather and/or obstructions to visibility. SCZ050-WAZ558-NCZ071-TXZ119-213-PAZ071-DCZ001-FLZ074-172-MI076- NYZ176-178-MAZ016-IL014-TNZ027-NJZ106-GAZ044-MD014-192300- ...Gateway Observations for Charleston International... CITY SKY/WX TMP DP RH WIND PRES REMARKS Chas Airport FAIR 76 65 68 SE13 30.32S Seattle MOSUNNY 36 12 37 N12 30.20F WCI 28 Charlotte CLOUDY 56 53 90 N5 30.37R Dallas DFW CLOUDY 79 61 53 S16G25 29.76F Dallas Love CLOUDY 77 62 59 S15 29.78F Philladelphia CLOUDY 48 43 82 S7 30.36F Wash National CLOUDY 47 45 93 S7 30.36S Baltimore DRIZZLE 44 44 100 SE3 30.34F FOG Miami CLOUDY 78 70 76 E18G28 30.22R Detroit CLOUDY 51 50 96 S15G25 29.91R Newark LGT RAIN 47 42 83 S5 30.36F Laguardia CLOUDY 48 42 80 S8 30.36F J F K CLOUDY 45 43 93 S12 30.38F Boston Logan CLOUDY 49 39 68 SW15 30.36F Ft. Lauderdale CLOUDY 78 71 79 E20 30.22R Chicago O`Hare CLOUDY 57 53 86 SW18G28 29.78R Chicago Midway LGT RAIN 57 55 93 S15G23 29.80R Houston Bush PTSUNNY 77 65 66 S14G26 29.94F Houston Hobby CLOUDY 75 68 78 SE16G22 29.95F Nashville PTSUNNY 73 56 54 S15 30.12S Atlanta PTSUNNY 76 58 53 S10 30.25S $$ GAZ044-118-TXZ119-213-NCZ071-DCZ001-MDZ014-506-PAZ021-071-NJZ106- NYZ176-178-MAZ106-OHZ011-021-055-MIZ076-KYZ091-ILZ014-INZ047- MNZ060-ONZ431-192300- ...Gateway Observations for Savannah International... CITY SKY/WX TMP DP RH WIND PRES REMARKS Savannah Arpt PTSUNNY 78 61 55 SE14 30.31S Atlanta PTSUNNY 76 58 53 S10 30.25S Charlotte CLOUDY 56 53 90 N5 30.37R Dallas DFW CLOUDY 79 61 53 S16G25 29.76F Houston Bush PTSUNNY 77 65 66 S14G26 29.94F Wash National CLOUDY 47 45 93 S7 30.36S Wash Dulles CLOUDY 46 45 96 S12 30.33S Baltimore DRIZZLE 44 44 100 SE3 30.34F FOG Philadelphia CLOUDY 48 43 82 S7 30.36F Newark LGT RAIN 47 42 83 S5 30.36F Laguardia CLOUDY 48 42 80 S8 30.36F J F K CLOUDY 45 43 93 S12 30.38F Boston CLOUDY 49 39 68 SW15 30.36F Pittsburg LGT RAIN 63 56 78 S6 30.11F Akron CLOUDY 58 54 86 S15 30.06F Cleveland LGT RAIN 58 56 93 S14 30.04R Cincinnati CLOUDY 73 57 57 S14G23 30.03S Columbus FAIR 68 59 71 SW18 30.04F Detroit CLOUDY 51 50 96 S15G25 29.91R Chicago O`Hare CLOUDY 57 53 86 SW18G28 29.78R Minneapolis FRZ DRZL 22 20 92 NE16G26 29.86R FOG WCI 8 Indianapolis CLOUDY 64 58 80 SW8 29.99R Toronto Canada LGT RAIN 39 37 93 E7 30.00F VSB 3/8 WCI 34 $$

USA.gov is the U.S. government's official web portal to all federal, state and local government web resources and services.